Cape Byron Observation History
Time Wind Speed Temp Pressure Rel. Hum Rain
02/03:30pm N 10-15 kts 20.3°c 1020.3 hPa 69% 0.0mm
02/03:00pm N 10-15 kts 20.1°c 1020.3 hPa 70% 0.0mm
02/02:30pm N 9-13 kts 19.7°c 1020.4 hPa 69% 0.0mm
02/02:00pm N 9-13 kts 21.6°c 1020.5 hPa 58% 0.0mm
02/01:30pm N 8-12 kts 21.6°c 1020.6 hPa 60% 0.0mm
02/01:00pm N 8-12 kts 21.2°c 1020.8 hPa 63% 0.0mm
02/12:30pm N 8-11 kts 20.5°c 1021.2 hPa 67% 0.0mm
02/12:00pm N 7-11 kts 20.8°c 1021.8 hPa 62% 0.0mm
02/11:30am NNW 7-10 kts 19.5°c 1022.3 hPa 66% 0.0mm
02/11:00am N 7-10 kts 19.4°c 1022.8 hPa 66% 0.0mm
02/10:30am N 7-9 kts 19.4°c 1023.0 hPa 64% 0.0mm
02/10:00am NNW 5-7 kts 19.3°c 1023.2 hPa 65% 0.0mm
02/09:30am NNW 5-7 kts 18.9°c 1023.5 hPa 72% 0.0mm
02/09:00am NNW 6-9 kts 17.7°c 1023.3 hPa 74% 0.0mm
02/08:30am NNW 5-7 kts 16.9°c 1023.3 hPa 79% 0.0mm
02/08:00am NW 4-6 kts 16.2°c 1023.2 hPa 92% 0.0mm
02/07:30am NW 6-7 kts 14.8°c 1022.9 hPa 89% 0.0mm
02/07:00am NW 4-5 kts 14.5°c 1022.6 hPa 92% 0.0mm
02/06:30am NW 5-7 kts 14.4°c 1022.4 hPa 98% 0.0mm
02/06:00am NW 4-6 kts 14.3°c 1022.0 hPa 99% 0.0mm
02/05:30am NW 5-9 kts 14.6°c 1021.9 hPa 99% 0.0mm
02/05:00am NW 5-11 kts 14.1°c 1021.6 hPa 100% 0.0mm
02/04:30am NW 5-7 kts 13.9°c 1021.5 hPa 99% 0.0mm
02/04:00am NW 5-7 kts 14.0°c 1021.2 hPa 99% 0.0mm
02/03:30am NW 5-7 kts 14.8°c 1021.2 hPa 99% 0.0mm
02/03:00am NW 6-8 kts 15.2°c 1021.3 hPa 100% 0.0mm
02/02:30am NW 5-7 kts 14.3°c 1021.5 hPa 100% 0.0mm
02/02:00am NW 5-7 kts 14.3°c 1021.7 hPa 99% 0.0mm
02/01:30am NW 5-8 kts 14.5°c 1022.1 hPa 100% 0.0mm
02/01:00am NW 5-8 kts 14.7°c 1022.1 hPa 100% 0.0mm
02/12:30am WNW 4-5 kts 14.6°c 1022.2 hPa 99% 0.0mm
02/12:00am NW 4-7 kts 14.6°c 1022.7 hPa 100% 0.0mm
Time Wind Speed Temp Pressure Rel. Hum Rain
01/11:30pm NW 5-8 kts 14.5°c 1022.9 hPa 100% 0.0mm
01/11:00pm WNW 6-7 kts 14.3°c 1022.7 hPa 100% 0.0mm
01/10:30pm WNW 5-7 kts 14.4°c 1022.5 hPa 100% 0.0mm
01/10:00pm WNW 5-7 kts 14.6°c 1022.9 hPa 100% 0.0mm
01/09:30pm NW 5-7 kts 15.1°c 1023.1 hPa 99% 0.0mm
01/09:00pm NW 4-7 kts 15.6°c 1023.0 hPa 99% 0.0mm
01/08:30pm NW 5-7 kts 16.1°c 1022.9 hPa 92% 0.0mm
01/08:00pm NW 5-7 kts 16.7°c 1022.8 hPa 88% 0.0mm
01/07:30pm NNW 4-6 kts 17.2°c 1022.5 hPa 81% 0.0mm
01/07:00pm N 9-14 kts 17.8°c 1022.3 hPa 67% 0.0mm
01/06:30pm N 9-11 kts 17.7°c 1022.0 hPa 69% 0.0mm
01/06:00pm N 8-11 kts 17.7°c 1021.9 hPa 67% 0.0mm
01/05:30pm N 8-11 kts 17.7°c 1021.5 hPa 71% 0.0mm
01/05:00pm NNE 7-9 kts 17.7°c 1021.3 hPa 74% 0.0mm
01/04:30pm NE 7-11 kts 17.9°c 1021.1 hPa 73% 0.0mm
01/04:00pm NE 8-10 kts 18.2°c 1021.0 hPa 70% 0.0mm
01/03:30pm NE 7-8 kts 18.9°c 1021.0 hPa 68% 0.0mm
01/03:00pm ENE 5-7 kts 19.6°c 1021.2 hPa 67% 0.0mm
01/02:30pm ENE 7-9 kts 20.3°c 1021.2 hPa 64% 0.0mm
01/02:00pm ENE 6-9 kts 20.5°c 1021.4 hPa 64% 0.0mm
01/01:30pm ENE 7-9 kts 19.8°c 1021.5 hPa 61% 0.0mm
01/01:00pm E 6-8 kts 19.7°c 1021.9 hPa 62% 0.0mm
01/12:30pm E 4-6 kts 20.0°c 1022.1 hPa 59% 0.0mm
01/12:00pm ESE 5-7 kts 19.1°c 1022.5 hPa 64% 0.0mm
01/11:30am SE 5-7 kts 18.4°c 1022.9 hPa 66% 0.0mm
01/11:00am SSE 5-6 kts 18.1°c 1023.5 hPa 68% 0.0mm
01/10:30am S 5-6 kts 17.8°c 1023.9 hPa 67% 0.0mm
01/10:00am SSW 4-5 kts 17.5°c 1024.3 hPa 71% 0.0mm
01/09:30am SSW 5-7 kts 16.4°c 1024.4 hPa 74% 0.0mm
01/09:00am SW 7-9 kts 15.2°c 1024.5 hPa 80% 0.0mm
01/08:30am WSW 10-13 kts 14.5°c 1024.2 hPa 82% 0.0mm
01/08:00am WSW 12-14 kts 14.1°c 1024.1 hPa 85% 0.0mm
01/07:30am WSW 13-16 kts 13.8°c 1023.9 hPa 87% 0.0mm
01/07:00am WSW 13-16 kts 13.7°c 1023.8 hPa 88% 0.0mm
01/06:30am WSW 14-17 kts 13.3°c 1023.4 hPa 92% 0.0mm
01/06:00am WSW 13-16 kts 13.4°c 1023.1 hPa 89% 0.0mm
01/05:30am SW 11-13 kts 14.4°c 1022.8 hPa 80% 0.0mm
01/05:00am SSW 8-9 kts 14.6°c 1022.6 hPa 78% 0.0mm
01/04:30am SSW 7-8 kts 14.7°c 1022.4 hPa 78% 0.0mm
01/04:00am SW 9-11 kts 14.5°c 1022.6 hPa 80% 0.0mm
01/03:30am SW 11-14 kts 14.4°c 1022.9 hPa 82% 0.0mm
01/03:00am SW 11-15 kts 14.6°c 1023.0 hPa 81% 0.0mm
01/02:30am SW 11-13 kts 14.3°c 1022.9 hPa 82% 0.0mm
01/02:00am SW 10-13 kts 14.6°c 1022.8 hPa 80% 0.0mm
01/01:30am SW 10-12 kts 15.0°c 1023.1 hPa 78% 0.0mm
01/01:00am SW 8-11 kts 15.0°c 1023.2 hPa 78% 0.0mm
01/12:30am SW 9-11 kts 15.2°c 1023.5 hPa 76% 0.0mm
01/12:00am SSW 7-9 kts 15.7°c 1023.7 hPa 73% 0.0mm
Time Wind Speed Temp Pressure Rel. Hum Rain
30/11:30pm S 6-7 kts 15.8°c 1023.9 hPa 73% 0.0mm
30/11:00pm S 7-8 kts 16.1°c 1024.0 hPa 75% 0.0mm
30/10:30pm S 6-7 kts 16.0°c 1024.2 hPa 74% 0.0mm
30/10:00pm SSW 6-7 kts 15.6°c 1024.3 hPa 77% 0.0mm
30/09:30pm SSW 6-7 kts 15.4°c 1024.2 hPa 80% 0.0mm
30/09:00pm SSW 6-8 kts 15.6°c 1024.0 hPa 79% 0.0mm
30/08:30pm SSW 7-8 kts 15.9°c 1024.1 hPa 78% 0.0mm
30/08:00pm SW 7-8 kts 15.9°c 1024.2 hPa 76% 0.0mm
30/07:30pm SSE 6-8 kts 16.3°c 1024.1 hPa 76% 0.0mm
30/07:00pm S 5-7 kts 15.9°c 1024.0 hPa 80% 0.0mm
30/06:30pm S 5-6 kts 15.8°c 1023.8 hPa 83% 0.0mm
30/06:00pm SSW 5-7 kts 16.0°c 1023.4 hPa 83% 0.0mm
30/05:30pm SSW 6-9 kts 15.7°c 1023.3 hPa 85% 0.0mm
30/05:00pm SSW 7-10 kts 15.8°c 1023.1 hPa 82% 0.0mm
30/04:30pm SSW 9-13 kts 16.8°c 1023.0 hPa 79% 0.0mm
30/04:00pm S 10-12 kts 16.9°c 1023.0 hPa 76% 0.0mm
30/03:30pm S 12-15 kts 17.2°c 1023.1 hPa 75% 0.0mm
30/03:00pm S 13-16 kts 17.1°c 1023.1 hPa 74% 0.0mm
30/02:30pm S 11-14 kts 17.2°c 1023.1 hPa 71% 0.0mm
30/02:00pm S 11-14 kts 18.0°c 1023.3 hPa 67% 0.0mm
30/01:30pm SSW 9-13 kts 17.5°c 1023.4 hPa 69% 0.0mm
30/01:00pm SSW 10-14 kts 18.0°c 1023.7 hPa 72% 0.0mm
30/12:30pm SSW 13-16 kts 17.8°c 1024.1 hPa 74% 0.0mm
30/12:00pm SSW 9-14 kts 17.3°c 1024.6 hPa 72% 0.0mm
30/11:30am SSW 10-14 kts 16.9°c 1024.9 hPa 73% 0.0mm
30/11:00am SW 10-14 kts 16.5°c 1025.3 hPa 74% 0.0mm
30/10:30am WSW 10-14 kts 15.8°c 1025.6 hPa 77% 0.0mm
30/10:00am SW 12-15 kts 15.3°c 1025.5 hPa 80% 0.0mm
30/09:30am SW 12-17 kts 14.7°c 1025.5 hPa 83% 0.0mm
30/09:00am SW 13-18 kts 13.8°c 1025.6 hPa 85% 0.0mm
30/08:30am SW 13-19 kts 13.5°c 1025.4 hPa 86% 0.0mm
30/08:00am SW 13-17 kts 12.8°c 1025.3 hPa 91% 0.0mm
30/07:30am SW 13-17 kts 12.4°c 1025.0 hPa 94% 0.0mm
30/07:00am WSW 14-18 kts 12.2°c 1024.8 hPa 97% 0.0mm
30/06:30am WSW 13-18 kts 12.3°c 1024.8 hPa 97% 0.0mm
30/06:00am WSW 14-18 kts 12.1°c 1024.6 hPa 99% 0.0mm
30/05:30am WSW 14-17 kts 12.1°c 1024.2 hPa 99% 0.0mm
30/05:00am WSW 14-18 kts 12.1°c 1024.0 hPa 99% 0.0mm
30/04:30am SW 12-15 kts 12.0°c 1024.0 hPa 100% 0.0mm
30/04:00am WSW 13-17 kts 12.1°c 1024.0 hPa 100% 0.0mm
30/03:30am WSW 13-17 kts 12.1°c 1023.9 hPa 100% 0.0mm
30/03:00am WSW 12-16 kts 12.1°c 1024.0 hPa 100% 0.0mm
30/02:30am SW 12-14 kts 12.4°c 1024.1 hPa 100% 0.0mm
30/02:00am SW 12-16 kts 12.8°c 1024.7 hPa 100% 0.0mm
30/01:30am WSW 14-18 kts 12.5°c 1025.2 hPa 100% 0.0mm
30/01:00am WSW 16-21 kts 12.4°c 1025.1 hPa 100% 0.0mm
30/12:30am WSW 15-19 kts 12.7°c 1025.4 hPa 100% 0.0mm
30/12:00am WSW 12-16 kts 13.0°c 1025.4 hPa 99% 0.0mm